Location: Fort Wayne
(41.1310°N, 85.1290°W)
Time: 15:08:20
(UTC-04:00)

Cosmos 1000 Rocket - Visible Passes

Search period start: 26 June 2016 00:00
Search period end: 06 July 2016 00:00
Orbit: 953 x 993 km, 82.9° (Epoch: 25 June)

Date Brightness Start Highest point End Pass type
(mag) Time Alt. Az. Time Alt. Az. Time Alt. Az.
26 Jun 5.6 03:04:18 10° N 03:10:00 38° ENE 03:14:53 14° SE visible
26 Jun 5.3 04:49:53 10° NNW 04:55:08 31° W 04:59:27 14° SW visible
27 Jun 4.7 03:28:41 10° N 03:34:49 69° E 03:38:56 22° SSE visible
27 Jun 6.0 05:15:42 10° NW 05:19:25 17° W 05:23:10 10° WSW visible
28 Jun 6.6 02:09:30 10° NNE 02:13:34 18° ENE 02:17:38 10° ESE visible
28 Jun 4.4 03:53:23 10° NNW 03:59:28 68° W 04:03:01 26° S visible
29 Jun 5.8 02:33:13 10° NNE 02:38:38 32° ENE 02:42:33 17° SE visible
29 Jun 5.1 04:18:24 10° NNW 04:23:58 37° W 04:27:09 23° SW visible
30 Jun 4.9 02:57:29 10° N 03:03:32 56° E 03:06:43 28° SE visible
30 Jun 5.8 04:43:56 10° NW 04:48:19 21° W 04:51:18 15° WSW visible
01 Jul 6.7 01:38:49 10° NNE 01:42:08 15° ENE 01:45:27 10° E visible
01 Jul 4.4 03:22:05 10° N 03:28:15 82° W 03:30:54 37° S visible
01 Jul 6.4 05:11:11 10° WNW 05:12:31 11° WNW 05:13:49 10° W visible
02 Jul 6.1 02:02:12 10° NNE 02:07:16 26° ENE 02:10:30 17° ESE visible
02 Jul 4.9 03:46:59 10° NNW 03:52:48 46° W 03:55:06 32° SW visible
03 Jul 5.2 02:26:19 10° N 02:32:13 46° ENE 02:34:44 31° SE visible
03 Jul 5.6 04:12:18 10° NNW 04:17:11 26° W 04:19:19 21° WSW visible
04 Jul 6.8 01:08:28 10° NE 01:10:41 12° ENE 01:12:53 10° E visible
04 Jul 4.4 02:50:49 10° N 02:56:59 83° E 02:58:59 46° SSE visible
04 Jul 6.2 04:38:32 10° NW 04:41:26 14° W 04:43:34 12° WSW visible
05 Jul 6.2 01:31:14 10° NNE 01:35:53 22° ENE 01:38:40 16° ESE visible
05 Jul 4.6 03:15:36 10° NNW 03:21:36 56° W 03:23:15 43° SW visible
